EN

Hourly Weather Craigavon

Today, 24 October, Saturday

Time Temperature Precipitation Wind Pressure Humidity
00:00 +6°C° 0.4 mm 8 mps 742 mmHg 89%
01:00 +7°C° 0.1 mm 9 mps 741 mmHg 88%
02:00 +8°C° 0.1 mm 10 mps 739 mmHg 88%
03:00 +8°C° 0.1 mm 10 mps 738 mmHg 87%
04:00 +8°C° 1.5 mm 9 mps 738 mmHg 88%
05:00 +9°C° 1.5 mm 8 mps 737 mmHg 90%
06:00 +9°C° 1.5 mm 7 mps 737 mmHg 91%
07:00 +8°C° 0.2 mm 6 mps 737 mmHg 90%
08:00 +8°C° 0.2 mm 5 mps 738 mmHg 89%
09:00 +7°C° 0.2 mm 5 mps 738 mmHg 89%
10:00 +8°C° 0 mm 5 mps 738 mmHg 85%
11:00 +8°C° 0 mm 6 mps 738 mmHg 81%
12:00 +8°C° 0 mm 6 mps 738 mmHg 77%
13:00 +8°C° 0.1 mm 6 mps 738 mmHg 76%
14:00 +8°C° 0.1 mm 6 mps 737 mmHg 76%
15:00 +8°C° 0.1 mm 6 mps 737 mmHg 75%
16:00 +7°C° 0 mm 6 mps 737 mmHg 78%
17:00 +6°C° 0 mm 5 mps 737 mmHg 81%
18:00 +5°C° 0 mm 5 mps 736 mmHg 84%
19:00 +5°C° 0 mm 5 mps 736 mmHg 85%
20:00 +5°C° 0 mm 5 mps 736 mmHg 85%
21:00 +3°C° 0 mm 5 mps 735 mmHg 86%
22:00 +3°C° 0 mm 5 mps 735 mmHg 85%
23:00 +3°C° 0 mm 5 mps 735 mmHg 84%

Tomorrow, 25 October, Sunday

Time Temperature Precipitation Wind Pressure Humidity
00:00 +3°C° 0 mm 5 mps 734 mmHg 83%
01:00 +4°C° 0 mm 6 mps 734 mmHg 83%
02:00 +4°C° 0 mm 6 mps 734 mmHg 83%
03:00 +5°C° 0 mm 6 mps 733 mmHg 82%
04:00 +4°C° 0 mm 6 mps 733 mmHg 84%
05:00 +4°C° 0 mm 6 mps 733 mmHg 85%
06:00 +4°C° 0 mm 6 mps 734 mmHg 86%
07:00 +4°C° 0 mm 6 mps 734 mmHg 85%
08:00 +5°C° 0 mm 6 mps 734 mmHg 83%
09:00 +5°C° 0 mm 7 mps 735 mmHg 82%
10:00 +6°C° 0 mm 7 mps 735 mmHg 79%
11:00 +8°C° 0 mm 7 mps 735 mmHg 75%
12:00 +9°C° 0 mm 8 mps 735 mmHg 72%
13:00 +9°C° 0 mm 7 mps 735 mmHg 73%
14:00 +8°C° 0 mm 7 mps 735 mmHg 74%
15:00 +8°C° 0 mm 7 mps 735 mmHg 75%
16:00 +8°C° 0 mm 7 mps 735 mmHg 78%
17:00 +7°C° 0 mm 6 mps 735 mmHg 81%
18:00 +5°C° 0 mm 6 mps 735 mmHg 84%
19:00 +5°C° 0 mm 6 mps 735 mmHg 87%
20:00 +5°C° 0 mm 6 mps 735 mmHg 89%
21:00 +5°C° 0 mm 6 mps 735 mmHg 91%
22:00 +5°C° 0 mm 6 mps 734 mmHg 91%
23:00 +5°C° 0 mm 6 mps 734 mmHg 91%

Day after tomorrow, 26 October, Monday

Time Temperature Precipitation Wind Pressure Humidity
00:00 +5°C° 0 mm 6 mps 734 mmHg 91%
01:00 +6°C° 0 mm 5 mps 734 mmHg 91%
02:00 +6°C° 0 mm 5 mps 734 mmHg 92%
03:00 +6°C° 0 mm 5 mps 735 mmHg 93%
04:00 +6°C° 0.1 mm 5 mps 735 mmHg 93%
05:00 +6°C° 0.1 mm 5 mps 735 mmHg 93%
06:00 +6°C° 0.1 mm 5 mps 736 mmHg 93%
07:00 +7°C° 0.1 mm 5 mps 737 mmHg 90%
08:00 +7°C° 0.1 mm 6 mps 737 mmHg 86%
09:00 +8°C° 0.1 mm 7 mps 738 mmHg 83%
10:00 +9°C° 0.1 mm 7 mps 738 mmHg 81%
11:00 +9°C° 0.1 mm 8 mps 739 mmHg 78%
12:00 +10°C° 0.1 mm 8 mps 739 mmHg 76%
13:00 +10°C° 0.2 mm 8 mps 740 mmHg 77%
14:00 +9°C° 0.2 mm 7 mps 740 mmHg 78%
15:00 +9°C° 0.2 mm 7 mps 740 mmHg 79%
16:00 +9°C° 0 mm 6 mps 740 mmHg 81%
17:00 +8°C° 0 mm 6 mps 741 mmHg 84%
18:00 +7°C° 0 mm 6 mps 741 mmHg 86%
19:00 +7°C° 0 mm 5 mps 741 mmHg 88%
20:00 +6°C° 0 mm 5 mps 741 mmHg 90%
21:00 +6°C° 0 mm 4 mps 741 mmHg 91%
22:00 +5°C° 0 mm 4 mps 742 mmHg 93%
23:00 +5°C° 0 mm 4 mps 742 mmHg 94%

, 27 October, Tuesday

Time Temperature Precipitation Wind Pressure Humidity
00:00 +5°C° 0 mm 3 mps 742 mmHg 95%
01:00 +5°C° 0 mm 3 mps 741 mmHg 95%
02:00 +4°C° 0 mm 3 mps 741 mmHg 95%
03:00 +4°C° 0 mm 3 mps 741 mmHg 95%
04:00 +4°C° 0 mm 3 mps 740 mmHg 93%
05:00 +5°C° 0 mm 3 mps 739 mmHg 92%
06:00 +5°C° 0 mm 3 mps 738 mmHg 90%
07:00 +6°C° 0.6 mm 4 mps 737 mmHg 92%
08:00 +7°C° 0.6 mm 5 mps 736 mmHg 93%
09:00 +8°C° 0.6 mm 6 mps 735 mmHg 94%
10:00 +8°C° 1.9 mm 6 mps 735 mmHg 94%
11:00 +8°C° 1.9 mm 7 mps 735 mmHg 93%
12:00 +9°C° 1.9 mm 7 mps 734 mmHg 93%
13:00 +8°C° 0.3 mm 6 mps 734 mmHg 90%
14:00 +8°C° 0.3 mm 6 mps 735 mmHg 87%
15:00 +7°C° 0.3 mm 5 mps 735 mmHg 84%
16:00 +6°C° 0 mm 4 mps 735 mmHg 85%
17:00 +5°C° 0 mm 4 mps 735 mmHg 87%
18:00 +4°C° 0 mm 4 mps 736 mmHg 88%
19:00 +4°C° 0 mm 4 mps 735 mmHg 88%
20:00 +4°C° 0 mm 4 mps 735 mmHg 88%
21:00 +3°C° 0 mm 5 mps 735 mmHg 88%
22:00 +5°C° 0.1 mm 5 mps 734 mmHg 88%
23:00 +4°C° 0.1 mm 6 mps 733 mmHg 87%

27 October, Tuesday

Time Temperature Precipitation Wind Pressure Humidity
00:00 +5°C° 0 mm 3 mps 742 mmHg 95%
01:00 +5°C° 0 mm 3 mps 741 mmHg 95%
02:00 +4°C° 0 mm 3 mps 741 mmHg 95%
03:00 +4°C° 0 mm 3 mps 741 mmHg 95%
04:00 +4°C° 0 mm 3 mps 740 mmHg 93%
05:00 +5°C° 0 mm 3 mps 739 mmHg 92%
06:00 +5°C° 0 mm 3 mps 738 mmHg 90%
07:00 +6°C° 0.6 mm 4 mps 737 mmHg 92%
08:00 +7°C° 0.6 mm 5 mps 736 mmHg 93%
09:00 +8°C° 0.6 mm 6 mps 735 mmHg 94%
10:00 +8°C° 1.9 mm 6 mps 735 mmHg 94%
11:00 +8°C° 1.9 mm 7 mps 735 mmHg 93%
12:00 +9°C° 1.9 mm 7 mps 734 mmHg 93%
13:00 +8°C° 0.3 mm 6 mps 734 mmHg 90%
14:00 +8°C° 0.3 mm 6 mps 735 mmHg 87%
15:00 +7°C° 0.3 mm 5 mps 735 mmHg 84%
16:00 +6°C° 0 mm 4 mps 735 mmHg 85%
17:00 +5°C° 0 mm 4 mps 735 mmHg 87%
18:00 +4°C° 0 mm 4 mps 736 mmHg 88%
19:00 +4°C° 0 mm 4 mps 735 mmHg 88%
20:00 +4°C° 0 mm 4 mps 735 mmHg 88%
21:00 +3°C° 0 mm 5 mps 735 mmHg 88%
22:00 +5°C° 0.1 mm 5 mps 734 mmHg 88%
23:00 +4°C° 0.1 mm 6 mps 733 mmHg 87%

28 October, Wednesday

Time Temperature Precipitation Wind Pressure Humidity
00:00 +5°C° 0.1 mm 6 mps 732 mmHg 86%
01:00 +5°C° 0 mm 6 mps 732 mmHg 86%
02:00 +7°C° 0 mm 6 mps 731 mmHg 86%
03:00 +7°C° 0 mm 6 mps 730 mmHg 86%
04:00 +7°C° 0.2 mm 6 mps 730 mmHg 87%
05:00 +7°C° 0.2 mm 6 mps 729 mmHg 88%
06:00 +6°C° 0.2 mm 7 mps 729 mmHg 89%
07:00 +6°C° 0.4 mm 7 mps 728 mmHg 89%
08:00 +6°C° 0.4 mm 8 mps 727 mmHg 89%
09:00 +6°C° 0.4 mm 9 mps 725 mmHg 89%
10:00 +6°C° 0.5 mm 9 mps 725 mmHg 88%
11:00 +7°C° 0.5 mm 9 mps 724 mmHg 88%
12:00 +8°C° 0.5 mm 9 mps 723 mmHg 87%
13:00 +8°C° 0.5 mm 10 mps 723 mmHg 87%
14:00 +8°C° 0.5 mm 11 mps 723 mmHg 87%
15:00 +8°C° 0.5 mm 12 mps 723 mmHg 87%
16:00 +8°C° 0.3 mm 12 mps 724 mmHg 86%
17:00 +8°C° 0.3 mm 11 mps 726 mmHg 84%
18:00 +8°C° 0.3 mm 11 mps 727 mmHg 83%
19:00 +7°C° 0 mm 10 mps 729 mmHg 84%
20:00 +7°C° 0 mm 9 mps 731 mmHg 86%
21:00 +8°C° 0 mm 7 mps 733 mmHg 87%
22:00 +7°C° 0 mm 8 mps 735 mmHg 85%
23:00 +7°C° 0 mm 8 mps 736 mmHg 83%

29 October, Thursday

Time Temperature Precipitation Wind Pressure Humidity
00:00 +7°C° 0 mm 8 mps 737 mmHg 81%
01:00 +7°C° 0 mm 8 mps 738 mmHg 83%
02:00 +6°C° 0 mm 7 mps 738 mmHg 86%
03:00 +5°C° 0 mm 6 mps 739 mmHg 88%
04:00 +6°C° 0.5 mm 5 mps 738 mmHg 90%
05:00 +6°C° 0.5 mm 5 mps 737 mmHg 92%
06:00 +6°C° 0.5 mm 4 mps 737 mmHg 95%
07:00 +7°C° 0.2 mm 5 mps 736 mmHg 94%
08:00 +9°C° 0.2 mm 5 mps 736 mmHg 93%
09:00 +10°C° 0.2 mm 6 mps 735 mmHg 92%
10:00 +10°C° 0 mm 6 mps 736 mmHg 88%
11:00 +10°C° 0 mm 7 mps 736 mmHg 83%
12:00 +10°C° 0 mm 8 mps 736 mmHg 78%
13:00 +10°C° 0.1 mm 8 mps 736 mmHg 78%
14:00 +10°C° 0.1 mm 8 mps 737 mmHg 79%
15:00 +10°C° 0.1 mm 8 mps 737 mmHg 79%
16:00 +8°C° 0 mm 9 mps 738 mmHg 77%
17:00 +8°C° 0 mm 9 mps 738 mmHg 76%
18:00 +7°C° 0 mm 9 mps 739 mmHg 75%
19:00 +7°C° 0 mm 8 mps 740 mmHg 76%
20:00 +6°C° 0 mm 8 mps 741 mmHg 77%
21:00 +6°C° 0 mm 7 mps 742 mmHg 78%
22:00 +6°C° 0 mm 7 mps 742 mmHg 80%
23:00 +5°C° 0 mm 6 mps 743 mmHg 81%
Show more